Regional Weather Roundup
Issued by NWS

Home | Current Version | Previous Version | Text Only | Print | Product List | Glossary Off
Versions: 1 2 3 4 5 6 7 8 9 10 11 12 13 14 15 16 17 18 19 20 21 22 23 24 25 26 27 28 29 30 31 32 33 34 35 36 37 38 39 40 41 42 43 44 45 46 47 48 49 50

000
ASUS43 KMKX 230910
RWRWI

WISCONSIN REGIONAL WEATHER ROUNDUP
NATIONAL WEATHER SERVICE MILWAUKEE/SULLIVAN WI
300 AM CST TUE JAN 23 2018

NOTE: "FAIR" INDICATES FEW OR NO CLOUDS BELOW 12,000 FEET WITH NO
SIGNIFICANT WEATHER AND/OR OBSTRUCTIONS TO VISIBILITY.

WIZ001-002-006>008-014>016-023>028-231000-
NORTHWEST WISCONSIN

CITY           SKY/WX    TMP DP  RH WIND       PRES   REMARKS
SUPERIOR ARPT  MOCLDY    16  10  77 N7        29.94R WCI   6
ASHLAND        CLOUDY    20  17  88 NE14      29.89R WCI   7
HAYWARD        CLOUDY    20  17  88 N12       29.83R WCI   8
SIREN          CLOUDY    19  13  78 N10       29.88R WCI   7
CUMBERLAND     CLOUDY    21  16  79 N17G28    29.81R WCI   7
RICE LAKE      CLOUDY    23  19  87 N10G21    29.81S WCI  12
CHETEK         CLOUDY    23  20  89 N10G17    29.79R WCI  12
LADYSMITH      CLOUDY    22  19  91 N18G25    29.76S FOG     WCI   7
EAU CLAIRE     CLOUDY    24  20  84 N10       29.76R WCI  14
MENOMONIE      CLOUDY    26  22  84 NW16      29.79R WCI  14
NEW RICHMOND   CLOUDY    21  14  75 N16       29.84R WCI   7
OSCEOLA        FAIR      20  14  77 N13G18    29.89R WCI   7
$$

WIZ003>005-009-010-017-018-231000-
NORTH CENTRAL WISCONSIN

CITY           SKY/WX    TMP DP  RH WIND       PRES   REMARKS
MANITOWISH WTR LGT SNOW  19  19  99 N13G20    29.71S WCI   6
ARBOR VITAE    CLOUDY    22  19  89 N20G26    29.68R FOG     WCI   7
WOODRUFF       CLOUDY    22  19  89 N20G26    29.68R FOG     WCI   7
RHINELANDER    LGT SNOW  20  17  88 N13G24    29.64R FOG     WCI   7
EAGLE RIVER    CLOUDY    20  17  91 N15G22    29.65R WCI   6
LAND O LAKES   LGT SNOW  20  17  88 N16G24    29.69R WCI   6
PHILLIPS       CLOUDY    19  18  96 N13G23    29.71R FOG     WCI   6
TOMAHAWK       LGT SNOW  20  17  86 N14G23    29.67R WCI   7
MEDFORD        LGT SNOW  21  18  86 N17G24    29.65R WCI   7
MERRILL        LGT SNOW  22  19  87 N15G21    29.65R WCI   9
$$

WIZ029-030-035-036-043>047-231000-
CENTRAL WISCONSIN

CITY           SKY/WX    TMP DP  RH WIND       PRES   REMARKS
WAUSAU         MIX PCPN  23  19  85 N10       29.62R WCI  12
MOSINEE        CLOUDY    23  21  93 N17G24    29.64R WCI   9
MARSHFIELD     LGT SNOW  23  20  88 N15G25    29.64R FOG     WCI  10
STEVENS POINT  CLOUDY    23  21  91 N10G18    29.63R WCI  13
WAUPACA        CLOUDY    31  25  80 NW9       29.59R WCI  23
WAUTOMA        NOT AVBL
WISC RAPIDS    NOT AVBL
CAMP DOUGLAS   CLOUDY    27  24  91 NW14      29.65R WCI  15
$$

WIZ011>013-019>022-031-037>040-048>050-231000-
NORTHEAST WISCONSIN

CITY           SKY/WX    TMP DP  RH WIND       PRES   REMARKS
ANTIGO         CLOUDY    21  19  89 N20G26    29.59S FOG     WCI   6
SHAWANO        LGT SNOW  29  26  85 N13       29.58R WCI  19
OCONTO         CLOUDY    28  24  86 N8G18     29.57R WCI  19
STURGEON BAY   LGT SNOW  26  24  92 N24       29.54R FOG     WCI  11
GREEN BAY      CLOUDY    29  25  85 N17G30    29.56R WCI  17
MANITOWOC      FLURRIES  28  26  92 N20       29.54R WCI  15
APPLETON       LGT SNOW  28  28 100 N16       29.55R WCI  17
CLINTONVILLE   CLOUDY    28  23  80 N12G17    29.59R WCI  18
OSHKOSH        LGT SNOW  29  27  92 N12       29.56R FOG     WCI  19
$$

WIZ032>034-041-042-053>061-231000-
SOUTHWEST WISCONSIN

CITY           SKY/WX    TMP DP  RH WIND       PRES   REMARKS
LA CROSSE      LGT SNOW  27  23  85 N17G28    29.73R FOG     WCI  14
SPARTA         LGT SNOW  26  24  91 N14G22    29.70R WCI  15
VIROQUA        CLOUDY    27  26  96 N18       29.65R WCI  13
BOSCOBEL       CLOUDY    32 N/A N/A N15G24    29.67R WCI  22
PRAIRIE DU CHI CLOUDY    31  26  81 NW20      29.68R WCI  18
PLATTEVILLE    CLOUDY    32  32 100 NW12G20   29.62R WCI  23
$$

WIZ056-057-062-063-064-067-068-231000-
SOUTH CENTRAL WISCONSIN

CITY           SKY/WX    TMP DP  RH WIND       PRES   REMARKS
REEDSBURG      CLOUDY    29  26  90 N15G22    29.62R WCI  17
BARABOO/DELLS  CLOUDY    29  26  90 N15G22    29.60R WCI  18
LONE ROCK      CLOUDY    31  27  85 N13G22    29.63R WCI  21
MINERAL POINT  CLOUDY    32  32 100 NW14G20   29.60R WCI  22
MADISON        CLOUDY    30  27  88 N10G21    29.58R WCI  21
MIDDLETON      CLOUDY    32  29  90 N9        29.58R WCI  24
WATERTOWN      FLURRIES  29  29 100 N13G24    29.54R WCI  19
MONROE         LGT SNOW  32  30  93 N12       29.57R WCI  23
JANESVILLE     LGT SNOW  32  32 100 N8        29.56R WCI  25
$$

WIZ051-052-058>065-066-070>072-231000-
SOUTHEAST WISCONSIN

CITY           SKY/WX    TMP DP  RH WIND       PRES   REMARKS
MILWAUKEE      LGT SNOW  32  31  96 NW8       29.51R VSB 1   WCI  25
WAUKESHA       LGT SNOW  28  28 100 NW9       29.53R WCI  20
MILWAUKEE/TIMM LGT SNOW  30  28  93 N17G23    29.52R WCI  18
RACINE         LGT SNOW  33  32  96 N6        29.53R VSB 3/4 WCI  28
BURLINGTON     LGT SNOW  31  29  94 NW5       29.53R VSB 3/4 WCI  26
KENOSHA        SNOW      33  31  92 W10       29.51R VSB 1/2 WCI  25
FOND DU LAC    LGT SNOW  29  25  85 N15       29.56R FOG     WCI  18
SHEBOYGAN      LGT SNOW  29  28  96 N16       29.52R FOG     WCI  17
WEST BEND      LGT SNOW  30  30 100 N15       29.52R WCI  19
JUNEAU         CLOUDY    28  27  93 N20       29.55R WCI  15
$$

LSZ147-162-231000-
LAKE SUPERIOR

STATION/POSITION TIME  TEMP    WIND        PRES    WAVE
                       AIR SEA DIR/SP/G            HT/PER
                 (UTC) (F)     (DEG/KT/KT) (MB)    (FT/S)
DEVILS ISLAND    0900   19     350/ 18/ 20 1013.7R
SAXON HARBOR     0840   23      20/ 18/ 23 1011.5R
$$

LMZ867-665-643>646-231000-
LAKE MICHIGAN

STATION/POSITION TIME  TEMP    WIND        PRES    WAVE
                       AIR SEA DIR/SP/G            HT/PER
                 (UTC) (F)     (DEG/KT/KT) (MB)    (FT/S)
NORTHPORT PIER   0813   26     360/  7/ 11 1001.0R
KEWAUNEE LAKESHO 0842   27     350/ 11/ 15  999.4R
SHEBOYGAN LAKESH 0900   29     340/ 19/ 22  999.9R
PORT WASHINGTON  0830   30     340/  8/ 14 1001.0R
MILWAUKEE LAKESH 0850   31     340/ 10/ 14   N/A
KENOSHA   LAKESH 0900   32     290/ 10/ 11  999.7
$$

TC  - TEMPERATURE IN CELSIUS
VSB - VISIBILITY IN STATUTE MILES
WCI - WIND CHILL INDEX
HX  - HEAT INDEX





USA.gov is the U.S. government's official web portal to all federal, state and local government web resources and services.